Location: Balaclava NSW 2575, Australia
(34.4510°S, 150.4953°E)
Time: 17:16:09
(UTC+10:00)

Envisat - Pass Details

Date: 18 May 2021
Orbit: 764 x 766 km, 98.1° (Epoch: 18 June)

Event Time Altitude Azimuth Distance (km) Brightness Sun altitude
Rises 18:45:24 0° 190° (S) 3,265 6.3 -21.2°
Reaches altitude 10° 18:48:46 10° 213° (SSW) 2,329 5.8 -21.9°
Maximum altitude 18:51:26 14° 245° (WSW) 2,028 5.9 -22.4°
Drops below altitude 10° 18:54:07 10° 276° (W) 2,315 6.6 -22.9°
Sets 18:57:27 0° 300° (WNW) 3,232 7.4 -23.6°
